Bookmark and Share
Track history (hours):
 

Mpi Rosinante

Last reported at 2014-Apr-24 18:13 UTC. Time now 2014-Apr-24 19:30 UTC.
Position N 51°14' E 002°55'.

Length 15 m; draft 1.1 m.

Type: Ship. MMSI: 235074636.

NotesDate/timePositionNaut miles runAvg speedWind from/ knotsBaromVisibWave heightAir tempDewpointWater temp
2014-Apr-24 18:13N 51°14' E 002°55'0 0.4
2014-Apr-24 17:33N 51°14' E 002°56'0 0.3
2014-Apr-24 16:33N 51°14' E 002°56'2 2.3
2014-Apr-24 15:33N 51°16' E 002°55'2 2.2
2014-Apr-24 14:33N 51°14' E 002°56'0 0.0
2014-Apr-24 13:33N 51°14' E 002°56'0 0.0
2014-Apr-24 12:33N 51°14' E 002°56'0 0.0
2014-Apr-24 11:33N 51°14' E 002°56'0 0.0
2014-Apr-24 10:33N 51°14' E 002°56'0 0.0
2014-Apr-24 09:33N 51°14' E 002°56'0 0.0
2014-Apr-24 08:33N 51°14' E 002°56'0 0.0
2014-Apr-24 07:33N 51°14' E 002°56'0 0.0
2014-Apr-24 06:33N 51°14' E 002°56'0 0.0
2014-Apr-23 17:32N 51°14' E 002°56'0 0.0
2014-Apr-23 16:33N 51°14' E 002°56'0 0.0
2014-Apr-23 15:33N 51°14' E 002°56'0 0.0
2014-Apr-23 14:33N 51°14' E 002°56'0 0.0
2014-Apr-23 13:33N 51°14' E 002°56'0 0.0
2014-Apr-23 12:33N 51°14' E 002°56'0 0.0
2014-Apr-23 11:33N 51°14' E 002°56'0 0.0
2014-Apr-23 10:33N 51°14' E 002°56'0 0.0
2014-Apr-23 09:34N 51°14' E 002°56'0 0.0
2014-Apr-23 08:33N 51°14' E 002°56'0 0.0
2014-Apr-23 07:34N 51°14' E 002°56'0 0.0
2014-Apr-23 06:33N 51°14' E 002°56'0 0.0
2014-Apr-21 17:33N 51°14' E 002°56'0 0.3
2014-Apr-21 16:33N 51°14' E 002°56'1212.3
2014-Apr-21 15:33N 51°26' E 002°53'1211.1
2014-Apr-21 14:27N 51°38' E 002°56'0 0.4
2014-Apr-21 13:32N 51°38' E 002°56'0 0.0
2014-Apr-21 12:31N 51°38' E 002°56'0 0.0
2014-Apr-21 11:32N 51°38' E 002°56'0 0.0
2014-Apr-21 10:33N 51°38' E 002°56'0 0.0
2014-Apr-21 09:33N 51°38' E 002°56'0 0.0
2014-Apr-21 08:33N 51°38' E 002°56'0 0.0
2014-Apr-21 07:28N 51°38' E 002°56'2 2.7
2014-Apr-21 06:33N 51°36' E 002°54'1818.6
2014-Apr-21 05:33N 51°18' E 002°55'4 3.7
2014-Apr-21 04:33N 51°14' E 002°55'0 0.0
2014-Apr-20 11:18N 51°14' E 002°55'0 0.0
2014-Apr-20 10:33N 51°14' E 002°55'0 0.0
2014-Apr-20 09:33N 51°14' E 002°55'0 0.0
2014-Apr-20 08:33N 51°14' E 002°55'0 0.0
2014-Apr-20 07:33N 51°14' E 002°55'0 0.0
2014-Apr-20 06:33N 51°14' E 002°55'0 0.0
2014-Apr-19 13:33N 51°14' E 002°55'0 0.0
2014-Apr-19 12:34N 51°14' E 002°55'0 0.0
2014-Apr-19 11:33N 51°14' E 002°55'0 0.0
2014-Apr-19 10:33N 51°14' E 002°55'0 0.0
2014-Apr-19 09:33N 51°14' E 002°55'0 0.0
2014-Apr-19 08:33N 51°14' E 002°55'0 0.0
2014-Apr-19 07:33N 51°14' E 002°55'0 0.0
2014-Apr-19 06:33N 51°14' E 002°55'0 0.0
2014-Apr-18 16:12N 51°14' E 002°55'0 0.0
2014-Apr-18 15:33N 51°14' E 002°55'0 0.0
2014-Apr-18 14:33N 51°14' E 002°55'0 0.0
2014-Apr-18 13:34N 51°14' E 002°55'0 0.0
2014-Apr-18 12:34N 51°14' E 002°55'0 0.0
2014-Apr-18 11:34N 51°14' E 002°55'0 0.0
2014-Apr-18 10:34N 51°14' E 002°55'0 0.0
2014-Apr-18 09:34N 51°14' E 002°55'0 0.4
2014-Apr-18 08:34N 51°14' E 002°56'0 0.4
2014-Apr-18 07:33N 51°14' E 002°55'0 0.0
2014-Apr-18 06:33N 51°14' E 002°55'0 0.0
2014-Apr-17 17:13N 51°14' E 002°55'0 0.5
2014-Apr-17 16:33N 51°14' E 002°56'1615.7
2014-Apr-17 15:33N 51°29' E 002°53'10 9.8
2014-Apr-17 14:33N 51°39' E 002°55'1 1.3
2014-Apr-17 13:30N 51°40' E 002°57'2 2.0
2014-Apr-17 12:31N 51°39' E 002°54'1 0.7
2014-Apr-17 10:29N 51°38' E 002°53'1 1.2
2014-Apr-17 09:32N 51°39' E 002°54'1 0.8
2014-Apr-17 08:32N 51°39' E 002°55'1 0.8
2014-Apr-17 07:14N 51°38' E 002°56'1116.3
2014-Apr-17 06:33N 51°27' E 002°53'1413.5
2014-Apr-17 05:33N 51°14' E 002°56'0 0.4
2014-Apr-17 04:33N 51°14' E 002°55'0 0.0
2014-Apr-16 16:33N 51°14' E 002°55'1212.2
2014-Apr-16 15:33N 51°26' E 002°53'1212.0
2014-Apr-16 14:33N 51°38' E 002°56'1 0.2
2014-Apr-16 12:19N 51°38' E 002°56'0 0.2
2014-Apr-16 11:12N 51°38' E 002°56'0 0.0
2014-Apr-16 10:30N 51°38' E 002°56'0 0.0
2014-Apr-16 09:16N 51°38' E 002°56'0 0.1
2014-Apr-16 08:33N 51°38' E 002°56'1 0.8
2014-Apr-16 07:33N 51°39' E 002°55'1312.9
2014-Apr-16 06:33N 51°26' E 002°53'1212.5
2014-Apr-16 05:33N 51°14' E 002°56'0 0.0
2014-Apr-16 04:34N 51°14' E 002°56'0 0.0
2014-Apr-15 11:34N 51°14' E 002°55'0 0.0
2014-Apr-15 10:34N 51°14' E 002°55'0 0.0
2014-Apr-15 09:34N 51°14' E 002°55'0 0.4
2014-Apr-15 08:34N 51°14' E 002°56'  

Dump ship's entire track history

sailing weather and tide predictions

Mpi Rosinante — 2CPD4 — position and weather